Location: Bessat
(45.8735°N, 1.9924°E)
Time: 20:49:05
(UTC+00:00)

ATLAS 5 CENTAUR R/B - Pass Details

Date: 11 May 2021
Orbit: 513 x 1144 km, 63.3° (Epoch: 18 June)

Event Time Altitude Azimuth Distance (km) Brightness Sun altitude
Rises 20:38:41 0° 317° (NW) 3,275 7.4 -13.0°
Reaches altitude 10° 20:40:59 10° 313° (NW) 2,435 6.1 -13.3°
Maximum altitude 20:46:31 53° 238° (WSW) 1,138 2.9 -13.9°
Enters shadow 20:51:49 15° 167° (SSE) 2,428 4.1 -14.6°
